Regional Weather Roundup
Issued by NWS Newport/Morehead, NC

Current Version | Previous Version | Graphics & Text | Print | Product List | Glossary On
Versions: 1 2 3 4 5 6 7 8 9 10 11 12 13 14 15 16 17 18 19 20 21 22 23 24 25 26 27 28 29 30 31 32 33 34 35 36 37 38 39 40 41 42 43 44 45 46 47 48 49 50
000 ASUS42 KMHX 250024 RWRMHX WEATHER ROUNDUP FOR EASTERN NORTH CAROLINA NATIONAL WEATHER SERVICE NEWPORT/MOREHEAD CITY NC 800 PM EDT FRI MAR 24 2017 NOTE: "FAIR" INDICATES FEW OR NO CLOUDS BELOW 12,000 FEET WITH NO SIGNIFICANT WEATHER AND/OR OBSTRUCTIONS TO VISIBILITY NCZ015>017-031-032-045>047-102-103-250100- NORTH COAST CITY SKY/WX TMP DP RH WIND PRES REMARKS EDENTON NOT AVBL ELIZABETH CITY CLEAR 62 47 57 S9 30.33S KITTY HAWK NOT AVBL MANTEO CLEAR 58 48 69 SW17 30.36S $$ NCZ045>047-081-094-103-104-250100- CENTRAL COAST CITY SKY/WX TMP DP RH WIND PRES REMARKS FRISCO CLEAR 60 51 72 SW9 30.39F $$ NCZ095-097-098-100-101-250100- SOUTHERN COAST CITY SKY/WX TMP DP RH WIND PRES REMARKS BEAUFORT CLEAR 62 52 69 S12 30.40S CEDAR ISLAND NOT AVBL JACKSONVILLE CLEAR 62 52 69 S7 30.38S PINEY ISLAND CLEAR N/A N/A N/A S6 30.39S WILMINGTON CLEAR 63 52 67 SE5 30.40R $$ NCZ011>013-027>030-043-044-078>080-089-090>093-098-250100- COASTAL PLAIN CITY SKY/WX TMP DP RH WIND PRES REMARKS AHOSKIE NOT AVBL CLINTON CLEAR 65 47 51 S3 30.36S ELIZABETHTOWN CLEAR 65 49 56 S7 30.37S GOLDSBORO CLEAR 67 43 41 S6 30.32F GREENVILLE CLEAR 64 48 55 S12 30.35R HAVELOCK CLEAR 61 50 67 S6 30.40S KENANSVILLE CLEAR 64 50 59 S5 30.36S KINSTON CLEAR 64 48 55 S12 30.36S NEW BERN CLEAR 62 50 64 S8 30.39S RICHLANDS CLEAR 62 51 67 S8 30.38S ROCKY MOUNT CLEAR 62 47 57 S5 30.33F WASHINGTON CLEAR 64 48 57 S8G18 30.35S WHITEVILLE CLEAR 64 49 58 S6 30.38S $$ AMZ130-135-150-152-154-156-158-170-250-252-270-ANZ085-086-088-633-658-670-250100- MARINE OBSERVATIONS STATION/POSITION TIME TEMP WIND PRES WAVE SWELL AIR SEA DIR/SP/G HT/PER HT/PER (UTC) (F) (DEG/KT/KT) (MB) (FT/S) (FT/S) CHESAPEAKE LIGHT NOT AVBL 64 E VA BEACH 2350 54 51 200/ 17/ 21 1026.4 3/ 4 2/10 DUCK 0000 60 48 190/ 13/ 18 1026.5 2 E DUCK 0000 49 N/A 2/11 OREGON INLET 0000 57 53 190/ 15/ 17 1028.1 13E OREGON INLT NOT AVBL HATTERAS CG 0000 60 54 210/ 8/ 12 1028.8 DIAMOND BUOY 2350 66 74 210/ 16/ 19 1029.5 4/10 3/10 CAPE LOOKOUT 0000 64 200/ 10/ 12 1029.2 BEAUFORT LAB 0000 61 52 210/ 9/ 11 1028.5 30 SE NEW RVR IN 0008 66 210/ 12/ 16 1029.5 30 SE NEW RVR IN 2343 68 N/A 3/ 9 27 SE WRIGHTSVLE 0008 64 62 190/ 6/ 10 1029.1 5 SE WRIGHTSVLE 0008 61 58 170/ 6/ 8 1029.2 225 S CAPE HAT 2350 64 74 70/ 12/ 16 1031.0 5/ 7 3/ 7 41 SE CHARLESTON 2350 69 72 110/ 8/ 12 1028.5 4/ 7 3/ 7 $$

USA.gov is the U.S. government's official web portal to all federal, state and local government web resources and services.